EA3GKP-1 Barcelona ES current weather conditions

sailwx.info

Wind from 243

Air temperature 21.7° C
Dewpoint 20.5° C

Last reported at 2020-Sep-18 12:45 UTC.
Time now 2020-Sep-18 13:43 UTC

Location: N 41°23' E 002°08'.
View on Google Maps.

See reports from other nearby stations

  
Tides and Currents Weather Stations Pressure Air Temp Water Temp Dewpoint Dewpoint Depression Visibility Wind Speed Wind Dir Waves Ship Positions
date/time (UTC)wind fromknots sea level pressurealtimeterstation pressurevisibilityair tempwater tempwave heightnotes
2020-Sep-18 12:45 243 21.7
2020-Sep-18 12:35 242 21.1
2020-Sep-18 12:26 229 21.1
2020-Sep-18 12:16 187 20.6
2020-Sep-18 12:06 242 20.6
2020-Sep-18 11:57 172 20.6
2020-Sep-18 11:47 187 20.6
2020-Sep-18 11:37 145 20.6
2020-Sep-18 11:28 178 21.1
2020-Sep-18 11:18 215 23.3
2020-Sep-18 11:09 220 25.0
2020-Sep-18 10:59 169 25.6
2020-Sep-18 10:49 171 25.6
2020-Sep-18 10:40 150 26.1
2020-Sep-18 10:30 181 26.7
2020-Sep-18 10:20 078 27.2
2020-Sep-18 10:11 078 26.7
2020-Sep-18 10:01 078 27.2
2020-Sep-18 09:51 078 27.8
2020-Sep-18 09:42 079 27.2
2020-Sep-18 09:23 108 26.7
2020-Sep-18 09:13 140 26.1
2020-Sep-18 09:03 147 25.6
2020-Sep-18 08:54 147 25.0
2020-Sep-18 08:44 147 25.0
2020-Sep-18 08:34 147 25.0
2020-Sep-18 08:25 147 25.0
2020-Sep-18 08:15 147 25.0
2020-Sep-18 08:06 147 25.0
2020-Sep-18 07:56 147 25.0
2020-Sep-18 07:46 147 25.0
2020-Sep-18 07:37 147 25.0
2020-Sep-18 07:27 147 25.0
2020-Sep-18 07:17 152 25.0
2020-Sep-18 07:08 157 25.0
2020-Sep-18 06:58 157 24.4
2020-Sep-18 06:51 157 24.4
2020-Sep-18 06:48 157 24.4
2020-Sep-18 06:40 160 24.4
2020-Sep-18 06:39 160 24.4
2020-Sep-18 06:29 160 23.9
2020-Sep-18 06:20 160 23.9
2020-Sep-18 06:10 160 23.9
2020-Sep-18 06:00 160 23.9
2020-Sep-18 05:51 160 23.9
2020-Sep-18 05:41 160 23.9
2020-Sep-18 05:31 160 23.9
2020-Sep-18 05:22 160 23.9
2020-Sep-18 05:12 160 23.9
2020-Sep-18 05:03 160 23.9
2020-Sep-18 04:53 160 23.9
2020-Sep-18 04:43 160 23.9
2020-Sep-18 04:34 160 23.3
2020-Sep-18 04:24 160 23.3
2020-Sep-18 04:14 160 23.3
2020-Sep-18 04:05 160 23.3
2020-Sep-18 03:55 160 22.8
2020-Sep-18 03:46 160 23.3
2020-Sep-18 03:36 160 22.8
2020-Sep-18 03:26 160 22.8
2020-Sep-18 03:17 160 22.8
2020-Sep-18 03:07 160 22.8
2020-Sep-18 02:48 160 22.8
2020-Sep-18 02:38 160 22.8
2020-Sep-18 02:28 160 22.8
2020-Sep-18 02:19 160 22.8
2020-Sep-18 02:09 160 23.3
2020-Sep-18 02:00 160 23.3
2020-Sep-18 01:50 160 23.3
2020-Sep-18 01:42 160 23.3
2020-Sep-18 01:31 160 23.3
2020-Sep-18 01:21 160 23.9
2020-Sep-18 01:11 160 23.9
2020-Sep-18 01:02 160 23.9
2020-Sep-18 00:53 160 24.4
2020-Sep-18 00:43 160 25.0
2020-Sep-18 00:33 160 25.0
2020-Sep-18 00:23 106 25.0
2020-Sep-18 00:14 106 25.6
2020-Sep-18 00:04 106 25.6
2020-Sep-17 23:54 106 25.0
2020-Sep-17 23:45 106 25.0
2020-Sep-17 23:35 106 25.0
2020-Sep-17 23:25 106 25.0
2020-Sep-17 23:16 106 25.0
2020-Sep-17 23:06 106 25.0
2020-Sep-17 22:57 106 25.0
2020-Sep-17 22:47 108 25.0
2020-Sep-17 22:37 117 25.0
2020-Sep-17 22:28 121 25.0
2020-Sep-17 22:19 125 25.0
2020-Sep-17 22:08 102 25.0
2020-Sep-17 22:00 107 25.0
2020-Sep-17 21:59 107 25.0
2020-Sep-17 21:49 088 25.0
2020-Sep-17 21:40 095 25.0
2020-Sep-17 21:30 108 25.0
2020-Sep-17 21:20 096 25.0
2020-Sep-17 21:11 106 25.0
2020-Sep-17 21:01 122 25.0
2020-Sep-17 20:51 120 25.0
2020-Sep-17 20:42 137 25.0
2020-Sep-17 20:32 123 25.6
2020-Sep-17 20:23 143 25.6
2020-Sep-17 20:13 105 25.6
2020-Sep-17 20:03 098 26.1
2020-Sep-17 19:54 103 26.7
2020-Sep-17 19:44 104 26.1
2020-Sep-17 19:34 104 26.1
2020-Sep-17 19:25 104 26.1
2020-Sep-17 19:15 106 25.6
2020-Sep-17 19:06 107 25.6
2020-Sep-17 18:56 108 25.6
2020-Sep-17 18:46 104 25.6
2020-Sep-17 18:37 099 25.6
2020-Sep-17 18:27 095 25.6
2020-Sep-17 18:17 099 25.6
2020-Sep-17 18:08 120 25.6
2020-Sep-17 17:48 125 25.6
2020-Sep-17 17:39 114 26.1
2020-Sep-17 17:29 092 26.1
2020-Sep-17 17:20 134 25.6
2020-Sep-17 17:10 099 25.6
2020-Sep-17 17:00 093 25.6
2020-Sep-17 16:51 064 26.1
2020-Sep-17 16:41 152 26.1
2020-Sep-17 16:31 135 26.7
2020-Sep-17 16:22 109 26.7
2020-Sep-17 16:12 123 26.7
2020-Sep-17 16:02 110 27.2
2020-Sep-17 15:54 096 27.2
2020-Sep-17 15:43 116 27.2
2020-Sep-17 15:34 120 27.2
2020-Sep-17 15:24 079 27.8
2020-Sep-17 15:14 097 27.8
2020-Sep-17 15:05 109 27.8
2020-Sep-17 14:55 123 27.8
2020-Sep-17 14:45 113 28.3
2020-Sep-17 14:36 034 28.3
2020-Sep-17 14:26 099 27.8
2020-Sep-17 14:17 122 27.8
2020-Sep-17 14:07 091 27.8
2020-Sep-17 13:57 092 27.8
2020-Sep-17 13:48 115 27.8
2020-Sep-17 13:38 120 27.8
2020-Sep-17 13:28 115 27.8
2020-Sep-17 13:19 098 28.3
2020-Sep-17 13:10 126 28.3
2020-Sep-17 13:09 126 28.3
2020-Sep-17 12:59 123 27.8
2020-Sep-17 12:50 120 27.8
2020-Sep-17 12:40 113 27.8
2020-Sep-17 12:31 062 30.0
2020-Sep-17 12:21 092 30.6
2020-Sep-17 12:11 085 30.0
2020-Sep-17 12:02 098 30.0
2020-Sep-17 11:52 081 29.4
2020-Sep-17 11:42 091 29.4
2020-Sep-17 11:33 099 29.4
2020-Sep-17 11:23 081 30.0
2020-Sep-17 11:14 073 29.4
2020-Sep-17 11:04 064 29.4
2020-Sep-17 10:54 058 30.6
2020-Sep-17 10:45 086 30.0
2020-Sep-17 10:35 086 28.3
2020-Sep-17 10:25 086 27.8
2020-Sep-17 10:16 089 27.8
2020-Sep-17 10:06 089 27.8
2020-Sep-17 09:57 088 27.8
2020-Sep-17 09:47 088 27.8
2020-Sep-17 09:37 088 27.8
2020-Sep-17 09:28 105 28.3
2020-Sep-17 09:18 109 27.8
2020-Sep-17 09:08 109 27.2
2020-Sep-17 08:59 110 26.7
2020-Sep-17 08:49 112 26.7
2020-Sep-17 08:39 119 27.2
2020-Sep-17 08:30 123 27.8
2020-Sep-17 08:20 130 27.8
2020-Sep-17 08:11 132 27.8
2020-Sep-17 08:01 204 27.8
2020-Sep-17 07:51 207 28.3
2020-Sep-17 07:42 207 28.3
2020-Sep-17 07:32 207 27.8
2020-Sep-17 07:22 207 26.7
2020-Sep-17 07:13 207 25.6
2020-Sep-17 07:03 207 25.0
2020-Sep-17 06:54 207 25.0
2020-Sep-17 06:44 207 24.4
2020-Sep-17 06:34 207 24.4
2020-Sep-17 06:25 207 24.4
2020-Sep-17 06:15 208 24.4
2020-Sep-17 06:05 204 24.4
2020-Sep-17 05:56 162 23.9
2020-Sep-17 05:46 161 23.3
2020-Sep-17 05:36 161 23.3
2020-Sep-17 05:27 160 23.3
2020-Sep-17 05:17 159 23.3
2020-Sep-17 05:08 159 22.8
2020-Sep-17 04:58 159 22.8
2020-Sep-17 04:48 159 22.8
2020-Sep-17 04:39 159 22.8
2020-Sep-17 04:29 159 22.8
2020-Sep-17 04:19 159 22.8
2020-Sep-17 04:10 159 22.8
2020-Sep-17 04:00 159 22.8
2020-Sep-17 03:51 159 22.8
2020-Sep-17 03:41 159 22.8
2020-Sep-17 03:31 159 22.8
2020-Sep-17 03:22 159 22.8
2020-Sep-17 03:12 159 22.8
2020-Sep-17 03:02 159 22.8
2020-Sep-17 02:53 159 22.8
2020-Sep-17 02:43 159 22.8
2020-Sep-17 02:33 159 22.8
2020-Sep-17 02:24 159 22.8
2020-Sep-17 02:14 159 22.8
2020-Sep-17 02:05 159 22.8
2020-Sep-17 01:55 159 22.8
2020-Sep-17 01:45 159 22.8
2020-Sep-17 01:36 159 23.3
2020-Sep-17 01:26 159 23.3
2020-Sep-17 01:16 159 23.9
2020-Sep-17 01:07 159 23.9
2020-Sep-17 00:57 160 23.9
2020-Sep-17 00:48 174 23.3
2020-Sep-17 00:38 174 23.3
2020-Sep-17 00:28 174 23.9
2020-Sep-17 00:19 173 23.9
2020-Sep-17 00:09 173 23.3
2020-Sep-16 23:59 173 23.3
2020-Sep-16 23:50 173 23.9
2020-Sep-16 23:40 173 23.9
2020-Sep-16 23:31 174 23.9
2020-Sep-16 23:21 164 23.9
2020-Sep-16 23:11 164 23.9
2020-Sep-16 23:02 164 24.4
2020-Sep-16 22:52 164 24.4
2020-Sep-16 22:42 164 24.4
2020-Sep-16 22:34 165 24.4
2020-Sep-16 22:23 165 23.9
2020-Sep-16 22:13 165 23.9
2020-Sep-16 22:04 165 24.4
2020-Sep-16 21:54 161 25.0
2020-Sep-16 21:45 160 25.0
2020-Sep-16 21:35 161 25.0
2020-Sep-16 21:25 162 25.0
2020-Sep-16 21:16 161 25.0
2020-Sep-16 21:06 161 24.4
2020-Sep-16 20:56 161 24.4
2020-Sep-16 20:47 161 25.0
2020-Sep-16 20:38 161 25.0
2020-Sep-16 20:28 162 25.0
2020-Sep-16 20:18 146 25.0
2020-Sep-16 20:08 147 25.6
2020-Sep-16 19:59 142 25.6
2020-Sep-16 19:49 135 25.6
2020-Sep-16 19:39 135 25.6
2020-Sep-16 19:30 134 25.6
2020-Sep-16 19:20 110 25.6
2020-Sep-16 19:10 111 26.1
2020-Sep-16 19:01 110 25.6
2020-Sep-16 18:51 109 25.6
2020-Sep-16 18:42 108 25.6
2020-Sep-16 18:32 108 25.6
2020-Sep-16 18:22 108 25.6
2020-Sep-16 18:13 106 25.6
2020-Sep-16 18:03 096 25.6
2020-Sep-16 17:53 109 25.6
2020-Sep-16 17:44 111 26.1
2020-Sep-16 17:34 122 26.1
2020-Sep-16 17:25 111 26.1
2020-Sep-16 17:05 125 26.7
2020-Sep-16 16:56 127 26.7
2020-Sep-16 16:46 120 26.7
2020-Sep-16 16:36 138 26.7
2020-Sep-16 16:27 104 26.7
2020-Sep-16 16:18 102 26.7
2020-Sep-16 16:08 115 27.2
2020-Sep-16 15:58 095 27.8
2020-Sep-16 15:48 123 27.8
2020-Sep-16 15:39 141 27.8
2020-Sep-16 15:29 103 27.8
2020-Sep-16 15:19 132 27.8
2020-Sep-16 15:10 126 27.8
2020-Sep-16 15:00 115 27.8
2020-Sep-16 14:50 094 27.8
2020-Sep-16 14:41 120 27.8
2020-Sep-16 14:31 106 27.8
2020-Sep-16 14:22 063 27.8
2020-Sep-16 14:12 099 27.8
2020-Sep-16 14:02 101 27.8
2020-Sep-16 13:53 156 28.3
2020-Sep-16 13:43 092 28.3
2020-Sep-16 13:33 062 27.8
2020-Sep-16 13:24 071 27.8
2020-Sep-16 13:14 057 27.8
2020-Sep-16 13:05 082 28.3